Home > Weather > Helsinki > Past weeks

Flag for Finland Weather for the Past 2 Weeks in Helsinki, Finland

Now
34 °F

Passing clouds.


Feels Like: 27 °F
Forecast: 30 / 33 °F
Wind: 8 mph from South

Location: Helsinki Malmi Airport

Current Time: Feb 13, 2016 at 12:56:25 AM

Latest Report: Feb 13, 2016 at 12:20 AM


Visibility: N/A

Pressure: 29.50 "Hg

Humidity: 87%

Dew point: 30 °F

Location of HelsinkiLocation

Historic Weather in Helsinki — Graph

°F

Helsinki Temperature Yesterday

Maximum temperature yesterday: 34 °F (at 1:50 AM)
Minimum temperature yesterday: 32 °F (at 12:50 AM)
Average temperature yesterday: 33 °F

High & Low Weather Summary for the Past Weeks

 TemperatureHumidityPressure
High41 °F (Jan 30, 2:20 AM)100% (Jan 29, 11:50 PM)29.53 "Hg (Jan 29, 11:50 PM)
Low25 °F (Feb 3, 7:20 PM)70% (Jan 31, 11:20 AM)28.71 "Hg (Feb 2, 7:20 AM)
Average34 °F89%29.22 "Hg
* Reported Jan 28 11:20 PM — Feb 12 11:20 PM, Helsinki, Weather by CustomWeather, © 2016

Note: Actual official high and low records may vary slightly from our data, if they occured in-between our weather recording intervals... More about our weather records

Advertising

Helsinki Weather History for the Previous 24 Hours

 ConditionsComfort  
Time TempWeatherWind HumidityBarometerVisibility
11:20 PM
Fri, Feb 12
34 °FOvercast.9 mph87%29.47 "HgN/A
10:50 PM34 °FPassing clouds.12 mph87%29.47 "HgN/A
10:20 PM34 °FSnow flurries. Mostly cloudy.10 mph87%29.47 "HgN/A
9:50 PM34 °FLight rain. Overcast.10 mph87%29.45 "HgN/A
9:20 PM34 °FSprinkles. Low clouds.13 mph87%29.45 "Hg2 mi
8:50 PM32 °FSprinkles. Low clouds.15 mph93%29.42 "Hg1 mi
8:20 PM34 °FLight rain. Low clouds.13 mph87%29.42 "HgN/A
7:50 PM34 °FLight rain. Low clouds.15 mph87%29.39 "Hg2 mi
7:20 PM34 °FLight rain. Overcast.17 mph87%29.39 "Hg3 mi
6:50 PM34 °FLight rain. Overcast.18 mph87%29.39 "Hg4 mi
6:20 PM34 °FSprinkles. Low clouds.17 mph87%29.36 "HgN/A
5:50 PM34 °FSnow flurries. Low clouds.18 mph93%29.36 "HgN/A
5:20 PM34 °FLight rain. Low clouds.17 mph93%29.33 "HgN/A
4:50 PM34 °FSprinkles. Low clouds.17 mph93%29.33 "Hg6 mi
4:20 PM34 °FLow clouds.17 mph93%29.30 "HgN/A
3:50 PM34 °FLight rain. Partly sunny.17 mph93%29.30 "Hg2 mi
3:20 PM34 °FLight rain. Partly sunny.14 mph93%29.27 "HgN/A
2:50 PM34 °FLight rain. Partly sunny.10 mph93%29.27 "Hg2 mi
2:20 PM34 °FLight rain. Partly sunny.9 mph93%29.24 "Hg3 mi
1:50 PM34 °FLight rain. Partly sunny.10 mph93%29.24 "Hg2 mi
1:20 PM34 °FLight rain. Partly sunny.9 mph93%29.24 "Hg1 mi
12:50 PM34 °FLight rain. Partly sunny.14 mph93%29.24 "Hg1 mi
12:20 PM34 °FLight rain. Partly sunny.14 mph93%29.24 "Hg5 mi
11:50 AM34 °FLight rain. Partly sunny.13 mph93%29.24 "Hg4 mi
11:20 AM34 °FLight rain. Partly sunny.13 mph93%29.24 "HgN/A
10:50 AM34 °FLight rain. Partly sunny.14 mph93%29.24 "Hg3 mi
9:50 AM32 °FLight rain. Partly sunny.13 mph100%29.27 "Hg1 mi
9:20 AM32 °FLight rain. Partly sunny.13 mph100%29.27 "Hg1 mi
8:50 AM32 °FLight rain. Partly sunny.15 mph100%29.27 "Hg1 mi
8:20 AM32 °FLight rain. Partly sunny.13 mph100%29.27 "Hg1 mi
7:20 AM32 °FLight freezing rain. Low clouds.15 mph100%29.27 "HgN/A
6:50 AM34 °FLight rain. Low clouds.15 mph93%29.30 "HgN/A
6:20 AM32 °FSleet. Low clouds.14 mph100%29.30 "Hg5 mi
5:50 AM34 °FLight rain. Low clouds.14 mph93%29.30 "Hg5 mi
5:20 AM34 °FLight rain. Low clouds.14 mph93%29.30 "Hg2 mi
4:50 AM34 °FSleet. Low clouds.15 mph93%29.30 "Hg5 mi
4:20 AM34 °FLight rain. Low clouds.14 mph93%29.30 "Hg5 mi
3:50 AM34 °FLight rain. Low clouds.14 mph93%29.30 "HgN/A
3:20 AM34 °FLight rain. Low clouds.15 mph93%29.33 "Hg5 mi
2:50 AM34 °FSprinkles. Low clouds.15 mph93%29.33 "Hg4 mi
2:20 AM34 °FSprinkles. Low clouds.13 mph93%29.33 "HgN/A
1:50 AM34 °FLight rain. Low clouds.13 mph93%29.33 "HgN/A
1:20 AM32 °FLight rain. Low clouds.13 mph100%29.36 "Hg2 mi
12:50 AM32 °FSleet. Low clouds.12 mph100%29.36 "Hg2 mi
Weather by CustomWeather, © 2016

See weather overviewHow to use our weather pages